UWE-4

Last updated on Sun Aug 09 2026 00:03:15 GMT+0000 (Coordinated Universal Time)

1 43880U 18111E 26220.32614182 .00017646 00000+0 32384-3 0 9990 2 43880 97.5826 151.2403 0009579 122.8949 237.3224 15.49284493418840
UTC large
Height (km)
Speed (km/s)
/
Latitude / Longitude
Inclination (degrees)
Orbital Period (minutes)
Azimuth
Elevation
Range (km)
Doppler Factor

Next 0 passes for location: London (51.5072 / 0.1276)

No passes found over London.
UWE-4